1496692800.48,24714,21.19,73976.3,4.67,3.59,3.53,0,*76
1496692801.74,24715,21.19,73978.3,4.67,3.75,3.71,0,*79
1496692803.0,24716,21.19,73976.5,4.67,3.75,3.75,0,*7E
1496692804.23,24717,21.19,73978.3,4.65,3.67,3.71,0,*7A
1496692805.43,24718,21.19,73980.0,4.65,3.81,3.79,0,*75
1496692806.63,24719,21.19,73984.5,4.63,3.81,3.89,0,*7D
1496692807.81,24720,21.19,73982.5,4.65,3.89,3.89,0,*79
1496692808.99,24721,21.19,73978.0,4.65,3.89,3.93,0,*73
1496692810.18,24722,21.19,73982.8,4.65,3.93,3.93,0,*7B
1496692811.36,24723,21.19,73982.8,4.65,3.93,3.93,0,*7A
1496692812.54,24724,21.19,73982.3,4.65,3.93,3.93,0,*7D
1496692813.74,24725,21.19,73978.8,4.63,3.81,3.81,0,*7A
1496692814.92,24726,21.19,73980.0,4.65,3.81,3.81,0,*7F
1496692816.1,24727,21.19,73982.8,4.65,3.81,3.81,0,*7E
1496692817.28,24728,21.19,73982.0,4.65,3.89,3.89,0,*71
1496692818.46,24729,21.19,73984.8,4.65,3.89,3.89,0,*70
1496692819.64,24730,21.19,73986.0,4.65,3.89,3.89,0,*78
1496692820.82,24731,21.19,73984.5,4.65,3.89,3.89,0,*79
1496692822.04,24732,21.19,73984.3,4.65,3.97,3.97,0,*7A
1496692823.24,24733,21.19,73984.8,4.65,4.05,4.07,0,*79
1496692824.45,24734,21.19,73986.3,4.65,4.07,4.05,0,*7E
1496692825.68,24735,21.19,73986.5,4.63,3.93,3.97,0,*7F
1496692826.86,24736,21.19,73988.8,4.65,3.93,3.81,0,*7D
1496692828.07,24737,21.19,73990.8,4.63,3.81,3.89,0,*71
1496692829.25,24738,21.19,73992.3,4.65,3.89,3.89,0,*70
1496692830.46,24739,21.19,73992.5,4.63,3.89,3.89,0,*77
1496692831.68,24740,21.19,73992.8,4.65,3.97,3.97,0,*7F
1496692832.9,24741,21.19,73992.3,4.65,4.05,3.97,0,*72
1496692834.12,24742,21.19,73986.5,4.65,3.97,3.97,0,*7D
1496692835.32,24743,21.19,73984.0,4.65,3.97,3.93,0,*78
1496692836.55,24744,21.19,73986.3,4.63,3.81,3.79,0,*7A
1496692837.73,24745,21.19,73980.5,4.65,3.89,3.81,0,*72
1496692838.96,24746,21.19,73984.8,4.65,3.71,3.71,0,*79
1496692840.19,24747,21.19,73978.0,4.65,3.67,3.67,0,*78
1496692841.41,24748,21.19,73982.0,4.65,3.67,3.67,0,*77
1496692842.67,24749,21.19,73976.3,4.63,3.79,3.71,0,*78
1496692843.85,24750,21.19,73980.5,4.65,3.81,3.81,0,*7E
1496692845.03,24751,21.19,73978.0,4.65,3.89,3.89,0,*7F
1496692846.21,24752,21.19,73982.0,4.65,3.93,3.89,0,*77
1496692847.46,24753,21.19,73984.3,4.63,3.97,3.97,0,*7B
1496692848.71,24754,21.19,73978.0,4.63,3.97,3.97,0,*7C
1496692849.92,24755,21.19,73976.0,4.63,3.93,3.93,0,*7D
1496692851.12,24756,21.19,73980.8,4.65,3.97,3.93,0,*7C
1496692852.33,24757,21.19,73980.3,4.63,3.93,3.93,0,*7F
1496692853.51,24758,21.19,73980.3,4.65,3.89,3.89,0,*76
1496692854.72,24759,21.19,73980.5,4.63,3.81,3.81,0,*71
1496692855.9,24760,21.19,73978.8,4.65,3.89,3.89,0,*7D
1496692857.15,24761,21.19,73982.3,4.63,3.97,3.97,0,*7A
1496692858.37,24762,21.19,73976.8,4.65,3.97,3.97,0,*7F
1496692859.62,24763,21.19,73980.8,4.63,3.97,3.97,0,*78
1496692860.84,24764,21.19,73974.8,4.65,3.97,4.05,0,*75
1496692862.07,24765,21.19,73978.5,4.65,3.97,4.05,0,*74
1496692863.26,24766,21.19,73972.5,4.65,3.97,4.07,0,*75
1496692864.5,24767,21.19,73974.0,4.65,4.05,4.05,0,*7A
1496692865.75,24768,21.19,73976.8,4.63,4.05,4.05,0,*73
1496692866.93,24769,21.19,73976.8,4.65,3.93,3.93,0,*74
1496692868.15,24770,21.19,73978.3,4.65,3.97,3.97,0,*7C
1496692869.38,24771,21.19,73980.3,4.65,3.97,3.97,0,*7D
1496692870.6,24772,21.19,73980.0,4.65,4.05,4.05,0,*7E
1496692871.86,24773,21.19,73976.3,4.63,4.05,3.97,0,*75
1496692873.06,24774,21.19,73978.8,4.65,3.97,3.93,0,*7C
1496692874.27,24775,21.19,73978.0,4.63,3.93,3.93,0,*7F
1496692875.47,24776,21.19,73980.0,4.65,3.93,3.97,0,*7E
1496692876.67,24777,21.19,73980.0,4.65,3.93,3.97,0,*7F
1496692877.85,24778,21.19,73978.5,4.65,3.93,3.93,0,*74
1496692879.03,24779,21.19,73976.8,4.65,3.89,3.93,0,*7E
1496692880.21,24780,21.19,73980.3,4.65,3.89,3.89,0,*73
1496692881.42,24781,21.19,73982.0,4.63,3.89,3.89,0,*74
1496692882.63,24782,21.19,73982.8,4.63,3.89,3.93,0,*7C
1496692883.83,24783,21.19,73978.5,4.65,3.93,3.97,0,*74
1496692885.05,24784,21.19,73980.0,4.65,3.97,3.97,0,*77
1496692886.28,24785,21.19,73980.8,4.65,3.97,4.05,0,*7A
1496692887.5,24786,21.19,73982.8,4.65,3.97,3.97,0,*75
1496692888.7,24787,21.19,73980.5,4.65,3.97,3.93,0,*70
1496692889.9,24788,21.19,73976.5,4.65,3.97,3.93,0,*7F
1496692891.12,24789,21.19,73978.3,4.65,3.97,3.97,0,*7A
1496692892.32,24790,21.19,73976.3,4.65,3.93,3.97,0,*76
1496692893.54,24791,21.19,73980.3,4.65,3.97,3.97,0,*73
1496692894.74,24792,21.19,73982.0,4.65,4.05,3.93,0,*78
1496692895.99,24793,21.19,73982.3,4.67,4.01,4.01,0,*73
1496692897.21,24794,21.19,73982.8,4.65,3.97,3.97,0,*76
1496692898.41,24795,21.19,73976.0,4.65,3.97,3.93,0,*73
1496692899.63,24796,21.19,73972.0,4.65,3.97,3.97,0,*74
1496692900.85,24797,21.19,73970.0,4.65,3.97,3.97,0,*75
1496692902.06,24798,21.19,73972.5,4.65,4.05,4.07,0,*78
1496692903.26,24799,21.19,73972.5,4.65,3.93,3.97,0,*7F
1496692904.43,24800,21.19,73976.0,4.65,3.81,3.89,0,*7C
1496692905.61,24801,21.19,73974.8,4.65,3.89,3.89,0,*75
1496692906.82,24802,21.19,73976.0,4.63,3.81,3.81,0,*70
1496692908.05,24803,21.19,73974.3,4.65,3.71,3.71,0,*77
1496692909.31,24804,21.19,73972.0,4.63,3.67,3.67,0,*76
1496692910.53,24805,21.19,73968.0,4.65,3.71,3.67,0,*76
1496692911.76,24806,21.19,73970.0,4.65,3.67,3.67,0,*72
1496692912.98,24807,21.19,73970.5,4.63,3.59,3.67,0,*78
1496692914.21,24808,21.19,73972.0,4.63,3.59,3.67,0,*77
1496692915.41,24809,21.19,73968.3,4.63,3.59,3.59,0,*7B
1496692916.67,24810,21.19,73968.8,4.63,3.67,3.79,0,*7C
1496692917.9,24811,21.19,73972.8,4.63,3.81,3.79,0,*75
1496692919.08,24812,21.19,73972.5,4.65,3.89,3.89,0,*77
1496692920.31,24813,21.19,73972.3,4.63,3.89,3.97,0,*7F
1496692921.52,24814,21.19,73972.8,4.63,3.93,3.93,0,*77
1496692922.73,24815,21.19,73978.5,4.63,3.93,3.93,0,*76
1496692923.94,24816,21.19,73978.0,4.63,3.93,3.93,0,*75
1496692925.15,24817,21.19,73976.8,4.63,3.93,3.93,0,*74
1496692926.36,24818,21.19,73978.8,4.63,3.89,3.81,0,*73
1496692927.54,24819,21.19,73978.0,4.65,3.89,3.89,0,*7C
1496692928.75,24820,21.19,73976.8,4.63,3.89,3.93,0,*7B
1496692929.95,24821,21.19,73976.5,4.65,3.97,3.93,0,*73
1496692931.16,24822,21.19,73976.0,4.63,3.93,3.93,0,*72
1496692932.37,24823,21.19,73982.0,4.63,3.93,3.93,0,*73
1496692933.58,24824,21.19,73980.5,4.63,3.93,3.93,0,*74
1496692934.83,24825,21.19,73982.0,4.63,3.97,3.97,0,*75
1496692936.05,24826,21.19,73974.5,4.65,3.97,3.97,0,*70
1496692937.23,24827,21.19,73976.8,4.65,3.93,3.93,0,*71
1496692938.47,24828,21.19,73976.5,4.63,3.71,3.81,0,*77
1496692939.72,24829,21.19,73982.0,4.63,3.71,3.71,0,*79
1496692940.98,24830,21.19,73980.5,4.63,3.79,3.79,0,*71
1496692942.19,24831,21.19,73986.0,4.63,3.89,3.89,0,*70
1496692943.4,24832,21.19,73984.3,4.63,3.89,3.93,0,*78
1496692944.61,24833,21.19,73974.5,4.63,3.93,3.93,0,*72
1496692945.82,24834,21.19,73976.3,4.63,3.93,3.93,0,*75
1496692947.08,24835,21.19,73976.5,4.63,3.71,3.67,0,*73
1496692948.3,24836,21.19,73972.5,4.63,3.55,3.49,0,*7A
1496692949.5,24837,21.19,73974.3,4.63,3.55,3.55,0,*76
1496692950.73,24838,21.19,73976.8,4.61,3.41,3.33,0,*7E
1496692951.92,24839,21.19,73974.3,4.61,3.29,3.29,0,*7A
1496692953.15,24840,21.19,73974.5,4.57,3.41,3.41,0,*71
1496692954.38,24841,21.19,73970.0,4.57,3.45,3.45,0,*70
1496692955.55,24842,21.19,73974.3,4.57,3.55,3.55,0,*73
1496692956.77,24843,21.19,73976.8,4.61,3.45,3.53,0,*70
1496692958.0,24844,21.19,73972.3,4.57,3.45,3.53,0,*72
1496692959.19,24845,21.19,73974.3,4.57,3.53,3.55,0,*72
1496692960.36,24846,21.19,73970.5,4.57,3.55,3.55,0,*77
1496692961.59,24847,21.19,73974.3,4.57,3.75,3.75,0,*76
1496692962.76,24848,21.19,73972.0,4.57,3.85,3.85,0,*79
1496692963.94,24849,21.19,73972.8,4.57,3.85,3.85,0,*78
1496692965.11,24850,21.19,73976.3,4.57,3.85,3.85,0,*70
1496692966.28,24851,21.19,73976.0,4.57,3.89,3.85,0,*7D
1496692967.47,24852,21.19,73978.5,4.57,3.89,3.89,0,*72
1496692968.65,24853,21.19,73978.8,4.57,3.89,3.89,0,*73
1496692969.83,24854,21.19,73974.5,4.57,3.89,3.89,0,*74
1496692971.02,24855,21.19,73976.0,4.61,3.89,3.89,0,*70
1496692972.2,24856,21.19,73972.8,4.57,3.93,3.93,0,*76
1496692973.39,24857,21.19,73974.0,4.57,3.93,3.89,0,*7C
1496692974.59,24858,21.19,73974.3,4.57,3.93,4.01,0,*74
1496692975.79,24859,21.19,73972.3,4.57,3.93,4.01,0,*75
1496692976.99,24860,21.19,73974.3,4.57,4.01,3.93,0,*7F
1496692978.21,24861,21.19,73974.3,4.57,4.01,4.01,0,*72
1496692979.44,24862,21.19,73976.0,4.61,4.05,4.01,0,*70
1496692980.67,24863,21.19,73976.3,4.61,4.01,4.01,0,*75
1496692981.89,24864,21.19,73976.3,4.61,4.01,4.01,0,*72
1496692983.07,24865,21.19,73972.8,4.57,3.93,3.89,0,*7D
1496692984.26,24866,21.19,73972.0,4.57,3.93,3.93,0,*75
1496692985.46,24867,21.19,73968.8,4.57,3.93,4.01,0,*78
1496692986.64,24868,21.19,73972.5,4.61,3.89,3.93,0,*75
1496692987.89,24869,21.19,73976.5,4.63,3.97,3.97,0,*7D
1496692989.08,24870,21.19,73982.8,4.57,3.93,3.93,0,*72
1496692990.28,24871,21.19,73978.5,4.61,3.93,4.05,0,*7E
1496692991.47,24872,21.19,73980.5,4.57,3.89,3.93,0,*7B
1496692992.65,24873,21.19,73978.8,4.57,3.85,3.89,0,*7D
1496692993.88,24874,21.19,73972.3,4.61,3.79,3.79,0,*73
1496692995.11,24875,21.19,73972.5,4.61,3.79,3.75,0,*7E
1496692996.28,24876,21.19,73968.0,4.57,3.85,3.85,0,*74
1496692997.47,24877,21.19,73968.3,4.57,3.89,3.89,0,*75
1496692998.65,24878,21.19,73972.8,4.61,3.89,3.89,0,*7F
1496692999.84,24879,21.19,73976.8,4.57,3.93,3.93,0,*7B
1496693001.02,24880,21.19,73978.5,4.61,3.89,3.89,0,*78
1496693002.21,24881,21.13,73972.0,4.61,3.85,3.89,0,*75
1496693003.44,24882,21.19,73976.3,4.61,3.79,3.79,0,*7A
1496693004.64,24883,21.19,73972.0,4.57,3.67,3.85,0,*72
1496693005.82,24884,21.19,73970.0,4.61,3.85,3.85,0,*7C
1496693006.99,24885,21.19,73972.8,4.57,3.85,3.85,0,*78
1496693008.17,24886,21.19,73974.5,4.57,3.89,3.89,0,*7B
1496693009.35,24887,21.13,73970.8,4.57,3.89,3.89,0,*7A
1496693010.56,24888,21.19,73978.5,4.61,3.89,3.79,0,*7F
1496693011.74,24889,21.19,73978.8,4.61,3.89,3.85,0,*7D
1496693012.97,24890,21.19,73982.5,4.57,3.79,3.79,0,*7C
1496693014.14,24891,21.19,73974.3,4.57,3.85,3.85,0,*7D
1496693015.34,24892,21.19,73970.0,4.61,3.79,3.85,0,*78
1496693016.57,24893,21.19,73960.5,4.57,3.79,3.75,0,*73
1496693017.77,24894,21.19,73970.5,4.57,3.79,3.85,0,*7B
1496693019.01,24895,21.13,73970.3,4.61,3.79,3.79,0,*7C
1496693020.24,24896,21.19,73970.8,4.57,3.67,3.67,0,*7A
1496693021.46,24897,21.19,73964.5,4.57,3.53,3.45,0,*7C
1496693022.69,24898,21.19,73962.3,4.57,3.41,3.45,0,*70
1496693023.95,24899,21.19,73964.8,4.55,3.49,3.41,0,*7F
1496693025.15,24900,21.19,73964.3,4.55,3.59,3.59,0,*76
1496693026.41,24901,21.13,73966.8,4.55,3.41,3.41,0,*77
1496693027.66,24902,21.19,73966.5,4.55,3.49,3.49,0,*74
1496693028.86,24903,21.19,73968.5,4.55,3.59,3.59,0,*75
1496693030.09,24904,21.19,73976.5,4.53,3.67,3.67,0,*74
1496693031.32,24905,21.19,73978.8,4.53,3.79,3.71,0,*7D
1496693032.58,24906,21.19,73972.5,4.55,3.41,3.49,0,*78
1496693033.81,24907,21.19,73976.8,4.53,3.37,3.49,0,*7E
1496693035.07,24908,21.19,73980.0,4.55,3.71,3.71,0,*7E
1496693036.3,24909,21.19,73976.5,4.53,3.79,3.67,0,*76
1496693037.55,24910,21.19,73972.5,4.55,3.71,3.71,0,*77
1496693038.79,24911,21.19,73978.5,4.53,3.45,3.45,0,*70
1496693039.96,24912,21.19,73976.8,4.53,3.55,3.55,0,*73
1496693041.19,24913,21.19,73978.0,4.53,3.67,3.71,0,*75
1496693042.4,24914,21.13,73976.5,4.53,3.55,3.49,0,*78
1496693043.62,24915,21.13,73974.5,4.53,3.49,3.49,0,*74
1496693044.85,24916,21.19,73974.5,4.53,3.33,3.37,0,*73
1496693046.1,24917,21.13,73972.0,4.51,3.45,3.45,0,*74
1496693047.3,24918,21.19,73978.5,4.51,3.59,3.55,0,*77
1496693048.55,24919,21.19,73974.5,4.51,3.49,3.49,0,*7A
1496693049.75,24920,21.19,73974.5,4.51,3.25,3.25,0,*70
1496693051.0,24921,21.19,73978.5,4.51,3.49,3.49,0,*71
1496693052.25,24922,21.13,73974.8,4.51,3.67,3.67,0,*72
1496693053.48,24923,21.19,73972.8,4.51,3.67,3.59,0,*7E
1496693054.65,24924,21.19,73970.8,4.49,3.63,3.59,0,*74
1496693055.83,24925,21.19,73972.8,4.49,3.59,3.59,0,*7C
1496693057.0,24926,21.13,73970.3,4.49,3.59,3.59,0,*7F
1496693058.18,24927,21.19,73972.5,4.49,3.55,3.63,0,*7B
1496693059.43,24928,21.19,73970.8,4.51,3.67,3.67,0,*78
1496693060.63,24929,21.19,73970.0,4.49,3.53,3.55,0,*76
1496693061.8,24930,21.19,73968.5,4.49,3.55,3.63,0,*7D
1496693062.99,24931,21.19,73970.3,4.51,3.59,3.55,0,*7C
1496693064.25,24932,21.19,73970.5,4.51,3.67,3.67,0,*73
1496693065.47,24933,21.19,73970.3,4.49,3.53,3.45,0,*7C
1496693066.7,24934,21.19,73968.3,4.49,3.53,3.45,0,*7B
1496693067.95,24935,21.19,73968.3,4.51,3.37,3.37,0,*74
1496693069.18,24936,21.13,73966.8,4.49,3.23,3.23,0,*7E
1496693070.41,24937,21.13,73968.0,4.49,3.45,3.45,0,*7F
1496693071.66,24938,21.13,73968.3,4.47,3.53,3.53,0,*7E
1496693072.85,24939,21.13,73972.3,4.47,3.55,3.55,0,*7F
1496693074.03,24940,21.19,73976.3,4.49,3.63,3.55,0,*7A
1496693075.25,24941,21.19,73970.8,4.49,3.53,3.45,0,*79
1496693076.49,24942,21.13,73968.8,4.49,3.41,3.33,0,*78
1496693077.74,24943,21.19,73974.5,4.47,3.45,3.45,0,*72
1496693078.94,24944,21.19,73978.0,4.47,3.63,3.63,0,*75
1496693080.17,24945,21.19,73972.3,4.47,3.67,3.63,0,*70
1496693081.4,24946,21.19,73972.0,4.47,3.67,3.63,0,*73
1496693082.6,24947,21.19,73972.3,4.47,3.55,3.55,0,*76
1496693083.85,24948,21.19,73972.3,4.47,3.53,3.45,0,*7E
1496693085.1,24949,21.19,73974.5,4.47,3.53,3.53,0,*78
1496693086.29,24950,21.19,73976.0,4.47,3.55,3.63,0,*75
1496693087.49,24951,21.19,73980.3,4.47,3.63,3.63,0,*71
1496693088.7,24952,21.13,73976.3,4.49,3.67,3.63,0,*78
1496693089.93,24953,21.19,73980.8,4.49,3.75,3.75,0,*7D
1496693091.16,24954,21.19,73982.0,4.47,3.81,3.79,0,*73
1496693092.41,24955,21.13,73982.3,4.47,3.79,3.79,0,*75
1496693093.67,24956,21.19,73980.0,4.47,3.79,3.79,0,*76
1496693094.93,24957,21.19,73980.5,4.47,3.75,3.79,0,*7B
1496693096.18,24958,21.13,73976.8,4.47,3.79,3.75,0,*74
1496693097.44,24959,21.19,73982.0,4.47,3.79,3.79,0,*79
1496693098.69,24960,21.19,73976.8,4.47,3.79,3.79,0,*73
1496693099.92,24961,21.13,73978.0,4.47,3.81,3.79,0,*75
1496693101.17,24962,21.19,73978.3,4.47,3.79,3.79,0,*71
1496693102.42,24963,21.19,73978.0,4.47,3.79,3.79,0,*70
1496693103.68,24964,21.13,73976.3,4.47,3.79,3.79,0,*77
1496693104.93,24965,21.19,73978.8,4.47,3.79,3.79,0,*76
1496693106.16,24966,21.13,73978.8,4.49,3.79,3.79,0,*7B
1496693107.39,24967,21.19,73978.3,4.49,3.79,3.79,0,*7A
1496693108.64,24968,21.19,73976.3,4.47,3.79,3.79,0,*7B
1496693109.9,24969,21.19,73978.8,4.47,3.79,3.79,0,*7A
1496693111.13,24970,21.13,73978.5,4.49,3.79,3.79,0,*7C
1496693112.33,24971,21.13,73978.8,4.49,3.81,3.79,0,*7A
1496693113.56,24972,21.19,73982.0,4.49,3.79,3.79,0,*7E
1496693114.79,24973,21.19,73978.0,4.49,3.79,3.79,0,*7F
1496693116.0,24974,21.19,73978.8,4.49,3.79,3.81,0,*7F
1496693117.23,24975,21.13,73978.0,4.49,3.79,3.75,0,*75
1496693118.42,24976,21.13,73982.5,4.49,3.81,3.81,0,*7A
1496693119.65,24977,21.19,73984.8,4.47,3.79,3.81,0,*72
1496693120.88,24978,21.19,73988.0,4.47,3.79,3.81,0,*7D
1496693122.11,24979,21.19,73988.3,4.49,3.79,3.79,0,*75
1496693123.31,24980,21.13,73984.3,4.47,3.55,3.63,0,*78
1496693124.57,24981,21.19,73990.0,4.47,3.45,3.41,0,*78
1496693125.76,24982,21.19,73984.3,4.47,3.55,3.55,0,*7F
1496693127.01,24983,21.19,73980.5,4.47,3.53,3.45,0,*79
1496693128.27,24984,21.19,73984.5,4.47,3.45,3.45,0,*79
1496693129.53,24985,21.19,73984.8,4.47,3.45,3.45,0,*78
1496693130.78,24986,21.19,73986.0,4.47,3.45,3.41,0,*7F
1496693132.03,24987,21.19,73984.0,4.47,3.53,3.53,0,*7A
1496693133.26,24988,21.19,73984.8,4.45,3.49,3.41,0,*7F
1496693134.46,24989,21.19,73982.3,4.45,3.59,3.49,0,*77
1496693135.72,24990,21.19,73982.5,4.47,3.45,3.45,0,*7C
1496693136.91,24991,21.13,73978.3,4.45,3.53,3.63,0,*7C
1496693138.09,24992,21.13,73974.3,4.45,3.63,3.63,0,*7C
1496693139.35,24993,21.19,73978.8,4.47,3.75,3.75,0,*7F
1496693140.61,24994,21.13,73978.8,4.47,3.75,3.75,0,*78
1496693141.84,24995,21.19,73980.5,4.45,3.75,3.79,0,*77
1496693143.09,24996,21.13,73980.0,4.47,3.79,3.79,0,*7A
1496693144.35,24997,21.19,73982.0,4.47,3.79,3.79,0,*7B
1496693145.58,24998,21.13,73984.0,4.45,3.75,3.75,0,*76
1496693146.81,24999,21.13,73982.0,4.45,3.75,3.75,0,*77
1496693148.02,25000,21.19,73984.0,4.47,3.81,3.81,0,*7D
1496693149.25,25001,21.13,73980.5,4.45,3.79,3.79,0,*7E
1496693150.5,25002,21.13,73980.8,4.47,3.79,3.79,0,*7F
1496693151.74,25003,21.19,73982.3,4.45,3.75,3.75,0,*7C
1496693153.0,25004,21.19,73982.3,4.47,3.75,3.75,0,*79
1496693154.19,25005,21.19,73978.3,4.47,3.55,3.55,0,*78
1496693155.37,25006,21.13,73974.8,4.45,3.29,3.25,0,*75
1496693156.6,25007,21.13,73970.3,4.45,3.37,3.37,0,*78
1496693157.86,25008,21.19,73974.0,4.47,3.41,3.41,0,*75
1496693159.06,25009,21.13,73974.0,4.45,3.59,3.53,0,*7C
1496693160.23,25010,21.13,73972.5,4.45,3.63,3.59,0,*77
1496693161.43,25011,21.13,73982.0,4.45,3.59,3.53,0,*75
1496693162.6,25012,21.13,73978.3,4.45,3.59,3.59,0,*7C
1496693163.82,25013,21.19,73980.5,4.47,3.63,3.53,0,*7C
1496693165.04,25014,21.13,73980.0,4.45,3.53,3.53,0,*7A
1496693166.27,25015,21.19,73982.3,4.45,3.49,3.49,0,*7B
1496693167.5,25016,21.13,73982.5,4.45,3.49,3.41,0,*70
1496693168.73,25017,21.19,73986.5,4.45,3.49,3.41,0,*71
1496693169.97,25018,21.13,73984.0,4.43,3.53,3.49,0,*7B
1496693171.21,25019,21.13,73992.0,4.43,3.49,3.53,0,*7A
1496693172.42,25020,21.19,73998.5,4.43,3.25,3.25,0,*7B
1496693173.68,25021,21.13,73990.0,4.43,3.15,3.15,0,*7A
1496693174.9,25022,21.13,73988.3,4.41,3.15,3.23,0,*7E
1496693176.16,25023,21.13,73986.5,4.43,3.07,3.07,0,*78
1496693177.39,25024,21.19,73984.3,4.41,3.03,3.03,0,*7D
1496693178.65,25025,21.13,73982.3,4.43,3.07,3.03,0,*7A
1496693179.83,25026,21.13,73976.3,4.41,2.99,2.99,0,*7F
1496693181.06,25027,21.19,73982.0,4.41,3.11,3.15,0,*7A
1496693182.29,25028,21.13,73968.3,4.41,3.23,3.15,0,*74
1496693183.52,25029,21.13,73962.8,4.41,3.23,3.23,0,*70
1496693184.77,25030,21.13,73962.8,4.39,3.11,3.11,0,*77
1496693186.0,25031,21.13,73954.0,4.35,3.07,2.99,0,*7C
1496693187.2,25032,21.13,73960.8,4.39,2.99,2.99,0,*75
1496693188.45,25033,21.19,73960.3,4.39,3.11,3.11,0,*74
1496693189.71,25034,21.13,73956.5,4.39,3.11,3.11,0,*73
1496693190.96,25035,21.13,73954.0,4.35,3.23,3.23,0,*7E
1496693192.21,25036,21.13,73952.8,4.39,3.11,3.07,0,*76
1496693193.45,25037,21.13,73956.3,4.35,3.19,3.19,0,*7C
1496693194.69,25038,21.13,73960.5,4.33,3.07,3.15,0,*76
1496693195.93,25039,21.13,73958.5,4.33,3.07,3.07,0,*74
1496693197.16,25040,21.13,73958.3,4.33,3.15,3.07,0,*79
1496693198.4,25041,21.13,73958.8,4.33,3.15,3.15,0,*7B
1496693199.62,25042,21.13,73962.3,4.33,3.19,3.19,0,*78
1496693200.81,25043,21.13,73962.5,4.33,3.25,3.25,0,*79
1496693201.99,25044,21.13,73960.3,4.33,3.29,3.29,0,*7E
1496693203.24,25045,21.13,73962.3,4.31,3.37,3.37,0,*7D
1496693204.48,25046,21.13,73960.3,4.33,3.41,3.41,0,*7C
1496693205.72,25047,21.19,73964.8,4.33,3.37,3.41,0,*7C
1496693206.95,25048,21.13,73964.8,4.33,3.41,3.49,0,*7A
1496693208.18,25049,21.13,73966.5,4.33,3.49,3.49,0,*73
1496693209.44,25050,21.13,73964.3,4.31,3.49,3.49,0,*79
1496693210.61,25051,21.13,73964.3,4.33,3.59,3.59,0,*7A
1496693211.83,25052,21.13,73962.3,4.33,3.53,3.53,0,*79
1496693213.03,25053,21.13,73960.3,4.35,3.55,3.55,0,*7E
1496693214.25,25054,21.13,73956.8,4.33,3.53,3.53,0,*7F
1496693215.44,25055,21.13,73960.0,4.35,3.55,3.55,0,*78
1496693216.67,25056,21.13,73960.0,4.33,3.49,3.49,0,*7D
1496693217.93,25057,21.13,73960.0,4.31,3.41,3.49,0,*76
1496693219.16,25058,21.13,73962.3,4.31,3.59,3.49,0,*70
1496693220.36,25059,21.13,73958.3,4.31,3.59,3.59,0,*70
1496693221.54,25060,21.13,73960.8,4.33,3.59,3.59,0,*78
1496693222.74,25061,21.13,73964.8,4.31,3.59,3.59,0,*7B
1496693223.92,25062,21.13,73966.0,4.33,3.59,3.59,0,*7A
1496693225.1,25063,21.13,73972.0,4.33,3.59,3.59,0,*7B
1496693226.27,25064,21.19,73968.5,4.33,3.59,3.63,0,*75
1496693227.45,25065,21.13,73964.0,4.33,3.59,3.63,0,*74
1496693228.67,25066,21.13,73964.8,4.33,3.53,3.53,0,*7E
1496693229.88,25067,21.13,73964.3,4.35,3.55,3.53,0,*7F
1496693231.12,25068,21.13,73966.5,4.33,3.41,3.41,0,*70
1496693232.36,25069,21.13,73964.3,4.33,3.41,3.41,0,*71
1496693233.59,25070,21.13,73964.8,4.33,3.37,3.37,0,*79
1496693234.83,25071,21.13,73970.0,4.33,3.41,3.41,0,*78
1496693236.01,25072,21.13,73970.0,4.33,3.59,3.59,0,*7B
1496693237.23,25073,21.13,73968.3,4.31,3.53,3.59,0,*72
1496693238.44,25074,21.13,73970.8,4.31,3.59,3.59,0,*7F
1496693239.66,25075,21.13,73970.5,4.31,3.59,3.67,0,*73
1496693240.87,25076,21.13,73970.5,4.33,3.59,3.67,0,*72
1496693242.04,25077,21.13,73970.3,4.33,3.63,3.63,0,*7E
1496693243.22,25078,21.13,73966.5,4.33,3.63,3.63,0,*71
1496693244.45,25079,21.13,73964.3,4.33,3.67,3.67,0,*70
1496693245.65,25080,21.13,73964.5,4.33,3.63,3.67,0,*72
1496693246.83,25081,21.13,73968.0,4.33,3.63,3.63,0,*77
1496693248.0,25082,21.13,73966.3,4.33,3.63,3.63,0,*74
1496693249.18,25083,21.13,73966.5,4.33,3.63,3.63,0,*75
1496693250.35,25084,21.13,73966.0,4.33,3.63,3.63,0,*72
1496693251.56,25085,21.13,73966.0,4.33,3.63,3.67,0,*77
1496693252.79,25086,21.13,73970.0,4.33,3.67,3.67,0,*70
1496693254.05,25087,21.13,73966.8,4.39,3.67,3.71,0,*7C
1496693255.26,25088,21.13,73962.8,4.35,3.55,3.53,0,*7E
1496693256.52,25089,21.13,73962.0,4.35,3.41,3.41,0,*79
1496693257.76,25090,21.13,73966.5,4.35,3.53,3.53,0,*71
1496693258.94,25091,21.13,73966.8,4.33,3.59,3.59,0,*76
1496693260.14,25092,21.13,73968.0,4.35,3.63,3.63,0,*73
1496693261.33,25093,21.13,73968.5,4.35,3.63,3.63,0,*72
1496693262.53,25094,21.13,73976.3,4.35,3.63,3.55,0,*70
1496693263.78,25095,21.13,73976.3,4.35,3.45,3.45,0,*74
1496693265.0,25096,21.13,73974.8,4.35,3.55,3.53,0,*71
1496693266.23,25097,21.13,73976.3,4.33,3.49,3.41,0,*78
1496693267.48,25098,21.13,73968.3,4.35,3.23,3.23,0,*79
1496693268.68,25099,21.13,73960.8,4.35,2.99,2.99,0,*78
1496693269.86,25100,21.13,73966.8,4.33,2.95,2.95,0,*7F
1496693271.03,25101,21.13,73966.3,4.33,2.95,2.95,0,*7E
1496693272.24,25102,21.13,73970.8,4.31,2.95,2.91,0,*7B
1496693273.42,25103,21.13,73970.3,4.33,2.95,2.91,0,*78
1496693274.59,25104,21.13,73970.5,4.33,2.95,2.95,0,*7B
1496693275.8,25105,21.13,73966.0,4.31,2.95,2.95,0,*78
1496693276.98,25106,21.13,73964.8,4.29,2.91,2.91,0,*72
1496693278.16,25107,21.13,73968.0,4.29,2.91,2.91,0,*73
1496693279.34,25108,21.13,73964.8,4.29,2.91,2.99,0,*74
1496693280.54,25109,21.13,73964.5,4.29,2.89,2.91,0,*74
1496693281.76,25110,21.13,73964.5,4.27,2.89,2.85,0,*77
1496693282.95,25111,21.13,73970.0,4.27,2.99,2.85,0,*77
1496693284.12,25112,21.13,73974.8,4.27,2.99,2.95,0,*75
1496693285.35,25113,21.13,73978.3,4.27,2.89,2.89,0,*78
1496693286.52,25114,21.13,73974.3,4.27,2.99,2.99,0,*7F
1496693287.69,25115,21.13,73964.5,4.27,2.99,2.99,0,*7E
1496693288.86,25116,21.13,73964.8,4.27,2.95,2.95,0,*7D
1496693290.03,25117,21.13,73966.0,4.27,2.95,2.95,0,*7C
1496693291.22,25118,21.13,73966.8,4.25,2.99,2.99,0,*71
1496693292.48,25119,21.13,73970.5,4.25,3.07,3.11,0,*77
1496693293.71,25120,21.13,73970.8,4.23,3.15,3.15,0,*7C
1496693294.95,25121,21.13,73968.0,4.25,3.19,3.23,0,*72
1496693296.13,25122,21.13,73974.5,4.23,3.25,3.25,0,*7E
1496693297.36,25123,21.13,73972.8,4.23,3.41,3.37,0,*7E
1496693298.6,25124,21.13,73968.0,4.25,3.45,3.53,0,*79
1496693299.85,25125,21.13,73968.5,4.25,3.45,3.45,0,*7F
1496693301.1,25126,21.13,73972.5,4.25,3.33,3.33,0,*7C
1496693302.35,25127,21.13,73970.3,4.25,3.41,3.53,0,*7E
1496693303.58,25128,21.13,73972.3,4.27,3.45,3.45,0,*70
1496693304.8,25129,21.13,73964.3,4.27,3.41,3.33,0,*74
1496693306.06,25130,21.13,73964.5,4.25,3.41,3.41,0,*7B
1496693307.32,25131,21.13,73966.8,4.25,3.41,3.41,0,*7A
1496693308.54,25132,21.13,73966.0,4.27,3.33,3.33,0,*7B
1496693309.77,25133,21.13,73970.5,4.27,3.41,3.41,0,*7A
1496693310.99,25134,21.13,73976.5,4.27,3.53,3.45,0,*7A
1496693312.21,25135,21.13,73980.5,4.27,3.41,3.53,0,*7F
1496693313.43,25136,21.13,73978.3,4.27,3.53,3.53,0,*7F
1496693314.64,25137,21.13,73980.5,4.27,3.53,3.53,0,*7E
1496693315.85,25138,21.13,73976.8,4.27,3.53,3.53,0,*71
1496693317.07,25139,21.13,73972.0,4.25,3.55,3.53,0,*74
1496693318.32,25140,21.13,73974.0,4.25,3.45,3.45,0,*7C
1496693319.58,25141,21.13,73976.8,4.25,3.41,3.41,0,*7D
1496693320.83,25142,21.13,73976.3,4.25,3.45,3.41,0,*7A
1496693322.08,25143,21.13,73976.5,4.25,3.45,3.53,0,*78
1496693323.33,25144,21.13,73976.3,4.25,3.45,3.45,0,*78
1496693324.58,25145,21.13,73976.0,4.25,3.45,3.45,0,*79
1496693325.83,25146,21.13,73980.5,4.25,3.45,3.45,0,*7A
1496693327.07,25147,21.13,73980.0,4.25,3.53,3.53,0,*7B
1496693328.31,25148,21.13,73978.8,4.25,3.53,3.53,0,*74
1496693329.56,25149,21.13,73980.0,4.25,3.45,3.45,0,*75
1496693330.78,25150,21.13,73986.8,4.27,3.53,3.53,0,*7F